Location: Hanover
(52.3667°N, 9.7167°E)
Time: 03:24:02
(UTC+02:00)

ARIANE 6 FM1 Upper Stage - Pass Details

Date: 27 September 2024
Orbit: 564 x 594 km, 62.0° (Epoch: 06 October)

Event Time Altitude Azimuth Distance (km) Brightness Sun altitude
Rises 20:46:40 0° 245° (WSW) 2,787 7.0 -15.9°
Reaches altitude 10° 20:48:57 10° 250° (WSW) 1,896 6.1 -16.2°
Maximum altitude 20:53:08 51° 327° (NNW) 740 3.5 -16.8°
Drops below altitude 10° 20:57:23 10° 45° (NE) 1,924 5.1 -17.4°
Enters shadow 20:57:29 10° 45° (NE) 1,962 5.2 -17.4°
